Time,TemperatureF,DewpointF,PressureIn,WindDirection,WindDirectionDegrees,WindSpeedMPH,WindSpeedGustMPH,Humidity,HourlyPrecipIn,Conditions,Clouds,dailyrainin,SoftwareType,DateUTC
2013-02-19 00:01:00,48.4,46.9,29.99,ENE,68,2.0,4.0,95,0.01,,,-99.99,meteohub,2013-02-18 23:01:00,
2013-02-19 00:17:00,48.0,46.6,30.00,ENE,68,3.0,5.0,95,0.01,,,0.00,meteohub,2013-02-18 23:17:00,
2013-02-19 00:33:00,47.8,46.4,30.00,ENE,68,2.0,4.0,95,0.00,,,0.00,meteohub,2013-02-18 23:33:00,
2013-02-19 00:49:00,47.5,46.0,30.00,NE,45,3.0,5.0,95,0.00,,,0.00,meteohub,2013-02-18 23:49:00,
2013-02-19 01:04:00,47.5,46.0,30.00,NE,45,4.0,7.0,95,0.00,,,0.00,meteohub,2013-02-19 00:04:00,
2013-02-19 01:19:00,47.5,46.0,29.99,ENE,68,2.0,6.0,95,0.00,,,0.00,meteohub,2013-02-19 00:19:00,
2013-02-19 01:35:00,47.5,46.0,29.99,NE,45,4.0,5.0,95,0.00,,,0.00,meteohub,2013-02-19 00:35:00,
2013-02-19 01:50:00,47.3,46.2,29.99,ENE,68,3.0,6.0,96,0.00,,,0.00,meteohub,2013-02-19 00:50:00,
2013-02-19 02:05:00,46.9,45.5,29.99,NE,45,2.0,5.0,95,0.00,,,0.00,meteohub,2013-02-19 01:05:00,
2013-02-19 02:21:00,46.9,45.5,29.99,ENE,68,4.0,5.0,95,0.00,,,0.00,meteohub,2013-02-19 01:21:00,
2013-02-19 02:37:00,46.9,45.5,29.99,ENE,68,1.0,5.0,95,0.00,,,0.00,meteohub,2013-02-19 01:37:00,
2013-02-19 02:53:00,46.8,45.7,29.99,NE,45,4.0,7.0,96,0.00,,,0.00,meteohub,2013-02-19 01:53:00,
2013-02-19 03:08:00,46.9,45.9,29.99,NE,45,2.0,8.0,96,0.00,,,0.00,meteohub,2013-02-19 02:08:00,
2013-02-19 03:24:00,46.8,45.7,29.99,NE,45,3.0,8.0,96,0.00,,,0.00,meteohub,2013-02-19 02:24:00,
2013-02-19 03:40:00,46.8,45.7,29.99,ENE,68,3.0,6.0,96,0.00,,,0.00,meteohub,2013-02-19 02:40:00,
2013-02-19 03:56:00,46.8,45.7,29.99,ENE,68,2.0,5.0,96,0.00,,,0.00,meteohub,2013-02-19 02:56:00,
2013-02-19 04:12:00,47.1,46.0,29.99,ENE,68,3.0,7.0,96,0.00,,,0.00,meteohub,2013-02-19 03:12:00,
2013-02-19 04:27:00,47.8,46.8,29.99,East,90,5.0,8.0,96,0.00,,,0.00,meteohub,2013-02-19 03:27:00,
2013-02-19 04:43:00,47.8,46.8,29.99,East,90,3.0,7.0,96,0.00,,,0.00,meteohub,2013-02-19 03:43:00,
2013-02-19 04:58:00,47.7,46.6,29.99,East,90,2.0,5.0,96,0.00,,,0.00,meteohub,2013-02-19 03:58:00,
2013-02-19 05:13:00,47.7,46.6,29.99,ENE,68,2.0,5.0,96,0.00,,,0.00,meteohub,2013-02-19 04:13:00,
2013-02-19 05:29:00,47.5,46.4,29.99,ENE,68,3.0,6.0,96,0.00,,,0.00,meteohub,2013-02-19 04:29:00,
2013-02-19 05:45:00,47.7,46.6,29.99,East,90,2.0,5.0,96,0.00,,,0.00,meteohub,2013-02-19 04:45:00,
2013-02-19 06:01:00,47.7,46.6,29.99,East,90,2.0,6.0,96,0.00,,,0.00,meteohub,2013-02-19 05:01:00,
2013-02-19 06:19:00,47.5,46.4,30.00,ENE,68,3.0,4.0,96,0.00,,,0.00,meteohub,2013-02-19 05:19:00,
2013-02-19 06:35:00,47.5,46.4,30.00,ENE,68,4.0,6.0,96,0.00,,,0.00,meteohub,2013-02-19 05:35:00,
2013-02-19 06:50:00,47.8,46.8,29.99,East,90,3.0,5.0,96,0.00,,,0.00,meteohub,2013-02-19 05:50:00,
2013-02-19 07:07:00,47.8,46.8,29.99,ENE,68,3.0,7.0,96,0.00,,,0.00,meteohub,2013-02-19 06:07:00,
2013-02-19 07:23:00,48.0,46.9,29.99,ENE,68,4.0,7.0,96,0.00,,,0.00,meteohub,2013-02-19 06:23:00,
2013-02-19 07:38:00,47.8,46.8,29.99,ENE,68,3.0,7.0,96,0.00,,,0.00,meteohub,2013-02-19 06:38:00,
2013-02-19 07:53:00,47.8,46.8,30.00,ENE,68,3.0,7.0,96,0.00,,,0.00,meteohub,2013-02-19 06:53:00,
2013-02-19 08:08:00,47.8,46.8,30.00,ENE,68,5.0,8.0,96,0.00,,,0.00,meteohub,2013-02-19 07:08:00,
2013-02-19 08:24:00,48.0,46.9,30.00,ENE,68,4.0,8.0,96,0.00,,,0.00,meteohub,2013-02-19 07:24:00,
2013-02-19 08:40:00,48.6,47.5,30.00,ENE,68,5.0,9.0,96,0.00,,,0.00,meteohub,2013-02-19 07:40:00,
2013-02-19 08:55:00,49.6,48.2,30.01,ENE,68,3.0,9.0,95,0.00,,,0.00,meteohub,2013-02-19 07:55:00,
2013-02-19 09:12:00,50.4,48.7,30.01,ENE,68,2.0,9.0,94,0.00,,,0.00,meteohub,2013-02-19 08:12:00,
2013-02-19 09:27:00,51.1,48.9,30.01,East,90,8.0,11.0,92,0.00,,,0.00,meteohub,2013-02-19 08:27:00,
2013-02-19 09:42:00,51.6,49.1,30.01,ENE,68,5.0,13.0,91,0.00,,,0.00,meteohub,2013-02-19 08:42:00,
2013-02-19 09:58:00,51.6,48.4,30.01,East,90,6.0,13.0,88,0.00,,,0.00,meteohub,2013-02-19 08:58:00,
2013-02-19 10:13:00,51.8,48.4,30.01,NE,45,5.0,11.0,88,0.00,,,0.00,meteohub,2013-02-19 09:13:00,
2013-02-19 10:29:00,52.0,47.8,30.02,ENE,68,8.0,14.0,86,0.00,,,0.00,meteohub,2013-02-19 09:29:00,
2013-02-19 10:45:00,53.1,48.7,30.02,ENE,68,6.0,9.0,85,0.00,,,0.00,meteohub,2013-02-19 09:45:00,
2013-02-19 11:00:00,53.1,48.0,30.02,ENE,68,5.0,11.0,82,0.00,,,0.00,meteohub,2013-02-19 10:00:00,
2013-02-19 11:16:00,53.8,47.8,30.02,East,90,6.0,13.0,80,0.00,,,0.00,meteohub,2013-02-19 10:16:00,
2013-02-19 11:32:00,54.0,46.9,30.02,East,90,6.0,14.0,77,0.00,,,0.00,meteohub,2013-02-19 10:32:00,
2013-02-19 11:47:00,54.1,46.8,30.02,East,90,6.0,12.0,76,0.00,,,0.00,meteohub,2013-02-19 10:47:00,
2013-02-19 12:02:00,54.7,47.3,30.02,East,90,6.0,13.0,76,0.00,,,0.00,meteohub,2013-02-19 11:02:00,
2013-02-19 12:18:00,54.7,46.2,30.02,East,90,9.0,15.0,72,0.00,,,0.00,meteohub,2013-02-19 11:18:00,
2013-02-19 12:33:00,54.3,46.0,30.01,East,90,8.0,14.0,73,0.00,,,0.00,meteohub,2013-02-19 11:33:00,
2013-02-19 12:49:00,54.7,45.9,30.01,East,90,7.0,15.0,72,0.00,,,0.00,meteohub,2013-02-19 11:49:00,
2013-02-19 13:05:00,54.9,44.6,30.01,East,90,10.0,13.0,68,0.00,,,0.00,meteohub,2013-02-19 12:05:00,
2013-02-19 13:21:00,55.2,45.1,30.00,East,90,11.0,15.0,69,0.00,,,0.00,meteohub,2013-02-19 12:21:00,
2013-02-19 13:36:00,55.6,44.6,29.99,East,90,8.0,16.0,66,0.00,,,0.00,meteohub,2013-02-19 12:36:00,
2013-02-19 13:52:00,56.1,44.4,29.99,East,90,8.0,13.0,64,0.00,,,0.00,meteohub,2013-02-19 12:52:00,
2013-02-19 14:07:00,56.1,42.3,29.98,East,90,9.0,16.0,59,0.00,,,0.00,meteohub,2013-02-19 13:07:00,
2013-02-19 14:23:00,56.5,42.1,29.98,ESE,113,6.0,14.0,58,0.00,,,0.00,meteohub,2013-02-19 13:23:00,
2013-02-19 14:38:00,56.1,41.2,29.97,East,90,10.0,17.0,57,0.00,,,0.00,meteohub,2013-02-19 13:38:00,
2013-02-19 14:54:00,56.5,41.7,29.97,East,90,6.0,14.0,57,0.00,,,0.00,meteohub,2013-02-19 13:54:00,
2013-02-19 15:09:00,55.8,40.6,29.97,ESE,113,9.0,14.0,56,0.00,,,0.00,meteohub,2013-02-19 14:09:00,
2013-02-19 15:25:00,55.2,39.2,29.96,ESE,113,11.0,16.0,54,0.00,,,0.00,meteohub,2013-02-19 14:25:00,
2013-02-19 15:40:00,55.0,39.4,29.96,East,90,7.0,14.0,55,0.00,,,0.00,meteohub,2013-02-19 14:40:00,
2013-02-19 15:56:00,55.0,40.5,29.96,ESE,113,6.0,9.0,58,0.00,,,0.00,meteohub,2013-02-19 14:56:00,
2013-02-19 16:11:00,54.5,41.7,29.96,East,90,6.0,11.0,62,0.00,,,0.00,meteohub,2013-02-19 15:11:00,
2013-02-19 16:27:00,53.8,41.9,29.95,East,90,8.0,11.0,64,0.00,,,0.00,meteohub,2013-02-19 15:27:00,
2013-02-19 16:42:00,53.4,41.9,29.95,ESE,113,9.0,15.0,65,0.00,,,0.00,meteohub,2013-02-19 15:42:00,
2013-02-19 16:58:00,52.9,42.4,29.95,East,90,6.0,13.0,67,0.00,,,0.00,meteohub,2013-02-19 15:58:00,
2013-02-19 17:13:00,52.5,42.8,29.95,East,90,5.0,11.0,69,0.00,,,0.00,meteohub,2013-02-19 16:13:00,
2013-02-19 17:29:00,52.2,42.1,29.95,East,90,5.0,9.0,68,0.00,,,0.00,meteohub,2013-02-19 16:29:00,
2013-02-19 17:44:00,52.0,41.7,29.96,East,90,7.0,10.0,68,0.00,,,0.00,meteohub,2013-02-19 16:44:00,
2013-02-19 18:00:00,51.4,42.8,29.96,ESE,113,7.0,10.0,72,0.00,,,0.00,meteohub,2013-02-19 17:00:00,
2013-02-19 18:15:00,51.3,42.6,29.96,East,90,7.0,10.0,72,0.00,,,0.00,meteohub,2013-02-19 17:15:00,
2013-02-19 18:31:00,50.5,42.6,29.96,East,90,5.0,8.0,74,0.00,,,0.00,meteohub,2013-02-19 17:31:00,
2013-02-19 18:46:00,50.4,42.4,29.96,East,90,6.0,8.0,74,0.00,,,0.00,meteohub,2013-02-19 17:46:00,
2013-02-19 19:02:00,50.0,42.1,29.97,East,90,6.0,10.0,74,0.00,,,0.00,meteohub,2013-02-19 18:02:00,
2013-02-19 19:17:00,49.6,41.7,29.97,East,90,3.0,8.0,74,0.00,,,0.00,meteohub,2013-02-19 18:17:00,
2013-02-19 19:33:00,49.3,41.4,29.97,ENE,68,5.0,8.0,74,0.00,,,0.00,meteohub,2013-02-19 18:33:00,
2013-02-19 19:49:00,48.4,41.2,29.97,ENE,68,4.0,7.0,76,0.00,,,0.00,meteohub,2013-02-19 18:49:00,
2013-02-19 20:05:00,48.0,41.4,29.97,ENE,68,2.0,5.0,77,0.00,,,0.00,meteohub,2013-02-19 19:05:00,
2013-02-19 20:20:00,47.5,41.4,29.97,East,90,2.0,6.0,79,0.00,,,0.00,meteohub,2013-02-19 19:20:00,
2013-02-19 20:36:00,47.3,41.2,29.98,ENE,68,1.0,2.0,79,0.00,,,0.00,meteohub,2013-02-19 19:36:00,
2013-02-19 20:51:00,47.5,41.4,29.98,ENE,68,2.0,5.0,79,0.00,,,0.00,meteohub,2013-02-19 19:51:00,
2013-02-19 21:07:00,46.6,41.0,29.98,ENE,68,0.0,4.0,81,0.00,,,0.00,meteohub,2013-02-19 20:07:00,
2013-02-19 21:22:00,46.6,41.0,29.99,ENE,68,1.0,2.0,81,0.00,,,0.00,meteohub,2013-02-19 20:22:00,
2013-02-19 21:39:00,46.2,40.6,29.99,East,90,1.0,4.0,81,0.00,,,0.00,meteohub,2013-02-19 20:39:00,
2013-02-19 21:54:00,46.2,40.6,29.99,ENE,68,1.0,4.0,81,0.00,,,0.00,meteohub,2013-02-19 20:54:00,
2013-02-19 22:10:00,46.0,40.5,29.99,East,90,1.0,2.0,81,0.00,,,0.00,meteohub,2013-02-19 21:10:00,
2013-02-19 22:25:00,46.0,40.3,29.99,ENE,68,1.0,3.0,80,0.00,,,0.00,meteohub,2013-02-19 21:25:00,
2013-02-19 22:41:00,46.0,40.3,29.99,ENE,68,0.0,2.0,80,0.00,,,0.00,meteohub,2013-02-19 21:41:00,
2013-02-19 22:56:00,46.2,40.1,29.99,ENE,68,0.0,1.0,79,0.00,,,0.00,meteohub,2013-02-19 21:56:00,
2013-02-19 23:12:00,46.2,40.1,29.99,NE,45,1.0,3.0,79,0.00,,,0.00,meteohub,2013-02-19 22:12:00,
2013-02-19 23:27:00,45.7,39.9,29.99,ENE,68,0.0,3.0,80,0.00,,,0.00,meteohub,2013-02-19 22:27:00,
2013-02-19 23:42:00,45.3,39.4,29.99,ENE,68,1.0,3.0,79,0.00,,,0.00,meteohub,2013-02-19 22:42:00,
2013-02-19 23:58:00,45.3,38.8,29.98,ENE,68,1.0,3.0,78,0.00,,,0.00,meteohub,2013-02-19 22:58:00,